This is the latest recevied weather packets stored in our database for station/object IR4UCA. If no packets are shown the sender has not sent any weather packets the latest 10 day(s).
| Time | Temp. | Humidity | Pressure | Rain* | Wind** | Luminosity | Snow |
|---|---|---|---|---|---|---|---|
| 1777753783 | 16.67° C | 60% | 1020.6 hPa | 0 mm | - | - | - |
| 1777753183 | 16.67° C | 59% | 1020.6 hPa | 0 mm | - | - | - |
| 1777752583 | 16.67° C | 58% | 1020.6 hPa | 0 mm | - | - | - |
| 1777751984 | 17.22° C | 57% | 1020.6 hPa | 0 mm | - | - | - |
| 1777751384 | 17.78° C | 54% | 1020.5 hPa | 0 mm | - | - | - |
| 1777750785 | 18.89° C | 51% | 1020.5 hPa | 0 mm | - | - | - |
| 1777750184 | 19.44° C | 49% | 1020.4 hPa | 0 mm | - | - | - |
| 1777749584 | 20° C | 47% | 1020.4 hPa | 0 mm | - | - | - |
| 1777748984 | 20° C | 46% | 1020.3 hPa | 0 mm | - | - | - |
| 1777748384 | 20.56° C | 46% | 1020.3 hPa | 0 mm | - | - | - |
| 1777747784 | 20.56° C | 45% | 1020.3 hPa | 0 mm | - | - | - |
| 1777747184 | 21.11° C | 44% | 1020.2 hPa | 0 mm | - | - | - |
| 1777746584 | 21.11° C | 43% | 1020.2 hPa | 0 mm | - | - | - |
| 1777745384 | 22.22° C | 40% | 1020.1 hPa | 0 mm | - | - | - |
| 1777744784 | 22.22° C | 40% | 1020 hPa | 0 mm | - | - | - |
| 1777744184 | 22.78° C | 39% | 1020.1 hPa | 0 mm | - | - | - |
| 1777743584 | 22.78° C | 39% | 1020.1 hPa | 0 mm | - | - | - |
| 1777742984 | 22.78° C | 38% | 1020.1 hPa | 0 mm | - | - | - |
| 1777742384 | 22.78° C | 38% | 1020.1 hPa | 0 mm | - | - | - |
| 1777741784 | 23.33° C | 38% | 1020.2 hPa | 0 mm | - | - | - |
| 1777741184 | 23.33° C | 38% | 1020.4 hPa | 0 mm | - | - | - |
| 1777739984 | 23.33° C | 38% | 1020.6 hPa | 0 mm | - | - | - |
| 1777739384 | 23.33° C | 37% | 1020.6 hPa | 0 mm | - | - | - |
| 1777738184 | 24.44° C | 36% | 1020.7 hPa | 0 mm | - | - | - |
| 1777735184 | 23.89° C | 36% | 1021.2 hPa | 0 mm | - | - | - |
* Rain latest hour (hover to see other rain measurements)
** Current wind speed in m/s (hover to see current wind gust speed)